A`zam Kala, Afghanistan

7:24 AM AFT on February 22, 2017 (GMT +0430)
Kandahar

Weather History for OAKN - April, 2014

Change the Weather History Date:

Wednesday, April 16, 2014

  Actual Average Record
Temperature  
Mean Temperature 73 °F -  
Max Temperature 84 °F 88 °F - ()
Min Temperature 62 °F 57 °F - ()
Cooling Degree Days 8    
Growing Degree Days 23 (Base 50)    
Moisture  
Dew Point 43 °F    
Average Humidity 36    
Maximum Humidity 60    
Minimum Humidity 15    
Precipitation  
Precipitation 0.00 in 0.01 in - ()
Sea Level Pressure  
Sea Level Pressure 29.98 in    
Wind  
Wind Speed 6 mph ()    
Max Wind Speed 16 mph    
Max Gust Speed 34 mph    
Visibility 6.2 miles    
Events      
T = Trace of Precipitation, MM = Missing Value Source: Averaged Metar Reports

Daily Weather History Graph

Daily Weather History Graph

Search for Another Location

Airport or City:

Trip Planner

Search our weather history database for the weather conditions in past years. The results will help you decide how hot, cold, wet, or windy it might be!

Date:

Astronomy

Apr. 16, 2014 Rise Set
Actual Time 5:37 AM AFT 6:35 PM AFT
Civil Twilight 5:12 AM AFT 7:00 PM AFT
Nautical Twilight 4:43 AM AFT 7:30 PM AFT
Astronomical Twilight 4:12 AM AFT 8:00 PM AFT
Moon 7:48 PM AFT (4/16) 6:10 AM AFT (4/16)
Length of Visible Light 13h 48m
Length of Day
12h 58m
Full, 99% of the Moon is Illuminated
Apr 16
Full
Apr 22
Last Quarter
Apr 29
New
May 7
First Quarter
May 14
Full

Hourly Weather History & Observations

Time (AFT) Temp. Dew Point Humidity Pressure Visibility Wind Dir Wind Speed Gust Speed Precip Events Conditions
12:25 AM 69.8 °F 50.0 °F 49% 29.98 in 6.2 mi Variable 2.3 mph - N/A   Partly Cloudy
1:25 AM 66.2 °F 51.8 °F 60% 29.98 in 6.2 mi NE 3.5 mph - N/A   Clear
2:25 AM 66.2 °F 50.0 °F 56% 29.98 in 6.2 mi Variable 2.3 mph - N/A   Clear
3:25 AM 64.4 °F 44.6 °F 49% 29.98 in 6.2 mi NE 9.2 mph - N/A   Clear
4:25 AM 64.4 °F 48.2 °F 56% 29.98 in 6.2 mi ENE 11.5 mph - N/A   Partly Cloudy
6:25 AM 62.6 °F 48.2 °F 59% 30.01 in 6.2 mi East 5.8 mph - N/A   Scattered Clouds
7:25 AM 64.4 °F 48.2 °F 56% 30.04 in 6.2 mi ENE 11.5 mph - N/A   Mostly Cloudy
8:25 AM 68.0 °F 48.2 °F 49% 30.04 in 6.2 mi ENE 8.1 mph - N/A   Mostly Cloudy
9:25 AM 73.4 °F 48.2 °F 41% 30.04 in 6.2 mi ENE 4.6 mph - N/A   Mostly Cloudy
10:25 AM 78.8 °F 42.8 °F 28% 30.01 in 6.2 mi ENE 6.9 mph - N/A   Scattered Clouds
11:25 AM 84.2 °F 32.0 °F 15% 30.01 in 6.2 mi NW 5.8 mph - N/A   Mostly Cloudy
12:25 PM 82.4 °F 37.4 °F 20% 30.01 in 6.2 mi West 9.2 mph - N/A   Mostly Cloudy
1:10 PM 80.6 °F 33.8 °F 18% 30.01 in 6.2 mi West 16.1 mph 34.5 mph N/A   Mostly Cloudy
1:25 PM 80.6 °F 33.8 °F 18% 30.01 in 6.2 mi West 13.8 mph 28.8 mph N/A   Overcast
2:25 PM 78.8 °F 39.2 °F 24% 30.01 in 6.2 mi West 13.8 mph 28.8 mph N/A   Mostly Cloudy
3:25 PM 77.0 °F 39.2 °F 26% 29.95 in 6.2 mi West 12.7 mph - N/A   Mostly Cloudy
4:25 PM 80.6 °F 35.6 °F 20% 29.92 in 6.2 mi West 13.8 mph - N/A   Scattered Clouds
5:25 PM 80.6 °F 37.4 °F 21% 29.92 in 6.2 mi West 8.1 mph - N/A   Clear
6:25 PM 78.8 °F 39.2 °F 24% 29.92 in 6.2 mi WSW 11.5 mph - N/A   Clear
7:25 PM 75.2 °F 42.8 °F 31% 29.92 in 6.2 mi SW 4.6 mph - N/A   Clear
8:25 PM 73.4 °F 41.0 °F 31% 29.92 in 6.2 mi SSE 3.5 mph - N/A   Clear
9:25 PM 69.8 °F 44.6 °F 40% 29.95 in 6.2 mi Variable 2.3 mph - N/A   Clear
10:25 PM 68.0 °F 42.8 °F 40% 29.92 in 6.2 mi Variable 2.3 mph - N/A   Clear
11:25 PM 68.0 °F 42.8 °F 40% 29.92 in 6.2 mi ESE 5.8 mph - N/A   Clear